Station RCPT2 - 8774770 - Rockport, TX Image indicating link to RSS feed of recent meteorological observations for station RCPT2


Conditions at RCPT2 as of
(10:18 am CDT)
1518 GMT on 05/28/2024:
     

Click on the graph icon in the table below to see a time series plot of the last five days of that observation.

5-day plot - Wind Direction Wind Direction (WDIR):SSE ( 160 deg true )
5-day plot - Wind Speed Wind Speed (WSPD): 11.1 kts
5-day plot - Wind Gust Wind Gust (GST): 14.0 kts
5-day plot - Atmospheric Pressure Atmospheric Pressure (PRES):29.91 in
5-day plot - Air Temperature Air Temperature (ATMP): 85.6 °F
5-day plot - Water Temperature Water Temperature (WTMP): 88.5 °F
5-day plot - Wind Speed at 10 Meters Wind Speed at 10 meters (WSPD10M): 11.7 kts
5-day plot - Wind Speed at 20 Meters Wind Speed at 20 meters (WSPD20M): 11.7 kts
5-day plot -  Wind Speed, Wind Gust and Atmospheric Pressure Combined plot of Wind Speed, Gust, and Air Pressure
NOS Water Level Observation Network Water Level
Previous observations
TIME
(CDT)
5-day plot - Wind Direction
WDIR
 
5-day plot - Wind Speed
WSPD
kts
5-day plot - Wind Gust
GST
kts
5-day plot - Wave Height
WVHT
ft
5-day plot - Dominant Wave Period
DPD
sec
5-day plot - Average Wave Period
APD
sec
5-day plot - Mean Wave Direction
MWD
 
5-day plot - Atmospheric Pressure
PRES
in
5-day plot - Pressure Tendency
PTDY
in
5-day plot - Air Temperature
ATMP
°F
5-day plot - Water Temperature
WTMP
°F
5-day plot - Dew Point
DEWP
°F
5-day plot - Salinity
SAL
psu
5-day plot - Visibility
VIS
nmi
5-day plot - Tide (above MLLW)
TIDE
ft
2024-05-28 10:12 amSSE 12.0 13.0----29.90- 85.5 88.5----
2024-05-28 10:06 amSSE 12.0 15.0----29.90- 85.3 88.3----
2024-05-28 10:00 amSSE 12.0 15.0----29.90+0.00 85.5 88.3----
2024-05-28 09:54 amSSE 12.0 14.0----29.90- 85.5 88.3----
2024-05-28 09:48 amSSE 11.1 14.0----29.90- 86.0 88.3----
2024-05-28 09:42 am SE 9.9 13.0----29.90- 86.4 88.3----
2024-05-28 09:36 amSSE 9.9 12.0----29.90- 86.5 88.3----
2024-05-28 09:30 am SE 8.9 13.0----29.90- 86.7 88.3----
2024-05-28 09:24 am SE 11.1 14.0----29.90- 86.9 88.3----
2024-05-28 09:18 am SE 8.0 13.0----29.89- 86.9 88.3----
2024-05-28 09:12 am SE 8.9 13.0----29.89- 86.5 88.3----
2024-05-28 09:06 am SE 8.0 12.0----29.89- 86.5 88.3----
2024-05-28 09:00 am SE 8.9 12.0----29.89+0.05 86.4 88.3----
2024-05-28 08:54 am SE 8.9 12.0----29.89- 86.2 88.3----
2024-05-28 08:48 am SE 9.9 13.0----29.89- 86.0 88.3----
2024-05-28 08:42 am SE 9.9 13.0----29.89- 86.0 88.3----
2024-05-28 08:36 am SE 9.9 13.0----29.90- 85.8 88.3----
2024-05-28 08:30 am SE 8.9 12.0----29.90- 85.5 88.3----
2024-05-28 08:24 am SE 8.9 12.0----29.90- 85.3 88.3----
2024-05-28 08:18 am SE 8.9 12.0----29.90- 85.3 88.3----
2024-05-28 08:12 am SE 8.9 12.0----29.90- 85.1 88.3----
2024-05-28 08:06 am SE 7.0 11.1----29.90- 85.1 88.3----
2024-05-28 08:00 am SE 8.0 11.1----29.90+0.09 84.9 88.3----
2024-05-28 07:54 am SE 7.0 9.9----29.90- 84.9 88.3----
2024-05-28 07:48 am SE 7.0 11.1----29.90- 84.9 88.3----
2024-05-28 07:42 am SE 8.0 11.1----29.90- 84.7 88.3----
2024-05-28 07:36 am SE 7.0 9.9----29.89- 84.7 88.3----
2024-05-28 07:30 am SE 6.0 9.9----29.89- 84.7 88.3----
2024-05-28 07:24 am SE 8.0 8.9----29.89- 84.6 88.3----
2024-05-28 07:18 am SE 7.0 8.9----29.89- 84.6 88.3----
2024-05-28 07:12 am SE 6.0 8.9----29.89- 84.4 88.3----
2024-05-28 07:06 am SE 6.0 8.9----29.89- 84.4 88.3----
2024-05-28 07:00 amSSE 8.0 9.9----29.89+0.06 84.6 88.3----
2024-05-28 06:54 amSSE 8.0 11.1----29.89- 84.4 88.3----
2024-05-28 06:48 amSSE 8.0 12.0----29.89- 84.7 88.3----
2024-05-28 06:42 amSSE 8.0 11.1----29.89- 84.6 88.3----
2024-05-28 06:36 am SE 6.0 7.0----29.88- 84.4 88.3----
2024-05-28 06:30 amESE 4.1 6.0----29.87- 84.4 88.5----
2024-05-28 06:24 am E 5.1 8.9----29.86- 84.4 88.5----
2024-05-28 06:18 amENE 8.0 8.9----29.85- 84.4 88.5----
2024-05-28 06:12 am E 6.0 9.9----29.85- 84.4 88.5----
2024-05-28 06:06 am E 2.9 9.9----29.85- 84.6 88.5----
2024-05-28 06:00 am E 6.0 9.9----29.85+0.03 84.6 88.5----
2024-05-28 05:54 am E 8.9 11.1----29.85- 84.4 88.5----
2024-05-28 05:48 am E 11.1 13.0----29.84- 84.4 88.5----
2024-05-28 05:42 am E 8.9 12.0----29.84- 84.2 88.5----
2024-05-28 05:36 am E 6.0 9.9----29.83- 84.4 88.5----
2024-05-28 05:30 am E 4.1 11.1----29.83- 84.4 88.5----
2024-05-28 05:24 am E 5.1 8.0----29.83- 84.4 88.5----
2024-05-28 05:18 am E 4.1 11.1----29.83- 84.2 88.5----
2024-05-28 05:12 am E 7.0 12.0----29.82- 84.2 88.5----
2024-05-28 05:06 am E 6.0 12.0----29.82- 84.7 88.5----
2024-05-28 05:00 am E 5.1 9.9----29.81-0.02 85.1 88.5----
2024-05-28 04:54 am E 7.0 13.0----29.82- 85.5 88.5----
2024-05-28 04:48 am E 4.1 12.0----29.82- 85.1 88.5----
2024-05-28 04:42 amENE 11.1 14.0----29.81- 85.1 88.5----
2024-05-28 04:36 amENE 11.1 13.0----29.81- 85.5 88.5----
2024-05-28 04:30 amENE 11.1 13.0----29.82- 85.6 88.5----
2024-05-28 04:24 am NE 11.1 13.0----29.82- 85.5 88.5----
2024-05-28 04:18 am NE 12.0 14.0----29.82- 85.3 88.5----
2024-05-28 04:12 am E 8.0 12.0----29.82- 85.5 88.5----
2024-05-28 04:06 am E 7.0 12.0----29.82- 85.1 88.7----
2024-05-28 04:00 amENE 9.9 13.0----29.83-0.11 85.1 88.7----
2024-05-28 03:54 am E 6.0 9.9----29.83- 85.3 88.5----
2024-05-28 03:48 am E 7.0 17.1----29.81- 85.1 88.5----
2024-05-28 03:42 am E 8.0 14.0----29.81- 85.3 88.5----
2024-05-28 03:36 am E 5.1 8.9----29.81- 85.8 88.5----
2024-05-28 03:30 am E 6.0 14.0----29.82- 86.2 88.5----
2024-05-28 03:24 amESE 11.1 17.1----29.82- 86.0 88.5----
2024-05-28 03:18 amESE 9.9 19.0----29.81- 86.4 88.5----
2024-05-28 03:12 am SE 12.0 20.0----29.81- 86.7 88.5----
2024-05-28 03:06 amESE 8.9 12.0----29.82- 85.3 88.5----
2024-05-28 03:00 am E 6.0 13.0----29.81-0.12 86.4 88.5----
2024-05-28 02:54 am SE 7.0 17.1----29.80- 86.7 88.7----
2024-05-28 02:48 am SE 11.1 15.9----29.78- 86.4 88.7----
2024-05-28 02:42 am SE 11.1 17.1----29.78- 85.5 88.7----
2024-05-28 02:36 am SE 9.9 12.0----29.80- 85.1 88.7----
2024-05-28 02:30 am E 9.9 12.0----29.82- 85.1 88.7----
2024-05-28 02:24 am E 5.1 6.0----29.83- 85.1 88.7----
2024-05-28 02:18 am SE 5.1 7.0----29.83- 85.1 88.7----
2024-05-28 02:12 am S 5.1 9.9----29.83- 85.3 88.7----
2024-05-28 02:06 am S 9.9 15.9----29.83- 85.1 88.7----
2024-05-28 02:00 am S 12.0 15.9----29.84-0.07 84.9 88.7----
2024-05-28 01:54 am S 13.0 17.1----29.85- 85.1 88.9----
2024-05-28 01:48 am S 14.0 17.1----29.88- 85.5 88.9----
2024-05-28 01:42 am S 14.0 17.1----29.89- 85.6 88.9----
2024-05-28 01:36 amSSW 11.1 15.0----29.91- 85.1 88.9----
2024-05-28 01:30 amSSW 12.0 19.0----29.92- 85.3 88.9----
2024-05-28 01:24 amSSW 14.0 19.0----29.93- 85.3 88.9----
2024-05-28 01:18 amSSW 15.9 22.0----29.93- 85.5 88.9----
2024-05-28 01:12 amSSW 17.1 22.0----29.94- 85.5 88.9----
2024-05-28 01:06 am S 18.1 22.9----29.94- 85.6 89.1----
2024-05-28 01:00 am S 18.1 24.1----29.94+0.06 86.0 89.1----
2024-05-28 12:54 am S 21.0 24.1----29.94- 85.8 89.1----
2024-05-28 12:48 am S 21.0 24.1----29.94- 85.6 89.1----
2024-05-28 12:42 am S 20.0 22.9----29.94- 85.6 89.1----
2024-05-28 12:36 am S 18.1 22.9----29.94- 85.6 89.2----
2024-05-28 12:30 amSSW 15.9 25.1----29.95- 84.9 89.2----
2024-05-28 12:24 am S 19.0 24.1----29.95- 85.5 89.2----
2024-05-28 12:18 am S 18.1 21.0----29.95- 85.3 89.2----
2024-05-28 12:12 am S 18.1 20.0----29.95- 85.3 89.2----
2024-05-28 12:06 am S 15.0 19.0----29.94- 85.5 89.2----
2024-05-28 12:00 am S 15.9 18.1----29.93+0.07 85.3 89.2----
2024-05-27 11:54 pm S 14.0 17.1----29.93- 85.1 89.2----
2024-05-27 11:48 pm S 15.0 17.1----29.93- 85.1 89.2----
2024-05-27 11:42 pm S 15.0 17.1----29.93- 85.3 89.2----
2024-05-27 11:36 pm S 14.0 15.9----29.93- 85.3 89.2----
2024-05-27 11:30 pm S 12.0 14.0----29.93- 85.3 89.2----
2024-05-27 11:24 pmSSE 12.0 15.0----29.93- 85.1 89.2----
2024-05-27 11:18 pmSSE 13.0 15.0----29.92- 85.1 89.2----
2024-05-27 11:12 pmSSE 13.0 14.0----29.92- 85.1 89.2----
2024-05-27 11:06 pmSSE 8.0 13.0----29.91- 85.3 89.2----
2024-05-27 11:00 pmSSE 9.9 14.0----29.91+0.09 85.1 89.2----
2024-05-27 10:54 pmSSE 9.9 14.0----29.91- 85.1 89.2----
2024-05-27 10:48 pm SE 9.9 14.0----29.90- 85.1 89.2----
2024-05-27 10:42 pmSSE 9.9 13.0----29.90- 85.3 89.2----
2024-05-27 10:36 pmSSE 8.9 12.0----29.90- 85.5 89.2----
2024-05-27 10:30 pm SE 7.0 8.9----29.90- 85.3 89.2----
2024-05-27 10:24 pmSSE 8.0 9.9----29.89- 84.9 89.2----
2024-05-27 10:18 pm SE 7.0 8.9----29.89- 85.1 89.2----
2024-05-27 10:12 pm SE 8.0 9.9----29.88- 85.3 89.2----
2024-05-27 10:06 pmESE 7.0 8.9----29.88- 85.3 89.2----
2024-05-27 10:00 pm SE 7.0 9.9----29.88+0.08 85.3 89.2----
2024-05-27 09:54 pm SE 7.0 8.9----29.88- 85.6 89.4----
2024-05-27 09:48 pmESE 5.1 9.9----29.87- 85.5 89.2----
2024-05-27 09:42 pm SE 8.0 12.0----29.87- 85.3 89.2----
2024-05-27 09:36 pm SE 9.9 13.0----29.88- 85.5 89.2----
2024-05-27 09:30 pm SE 8.0 11.1----29.87- 85.5 89.4----
2024-05-27 09:24 pmESE 8.0 12.0----29.87- 85.5 89.4----
2024-05-27 09:18 pm SE 7.0 11.1----29.87- 85.5 89.4----
2024-05-27 09:12 pmESE 8.0 11.1----29.86- 85.3 89.4----
2024-05-27 09:06 pmESE 8.0 12.0----29.86- 85.5 89.4----
2024-05-27 09:00 pmESE 8.0 12.0----29.86+0.07 85.6 89.4----
2024-05-27 08:54 pmESE 6.0 12.0----29.86- 85.5 89.4----
2024-05-27 08:48 pmESE 8.0 9.9----29.86- 85.8 89.4----
2024-05-27 08:42 pmESE 7.0 11.1----29.86- 85.5 89.4----
2024-05-27 08:36 pmESE 8.0 11.1----29.86- 85.6 89.4----
2024-05-27 08:30 pmESE 8.0 11.1----29.85- 85.5 89.4----
2024-05-27 08:24 pmESE 8.0 12.0----29.84- 85.6 89.4----
2024-05-27 08:18 pmESE 9.9 14.0----29.84- 85.5 89.4----
2024-05-27 08:12 pmESE 8.9 12.0----29.83- 85.6 89.4----
2024-05-27 08:06 pmESE 8.9 12.0----29.83- 85.8 89.4----
2024-05-27 08:00 pmESE 8.9 14.0----29.83- 85.8 89.4----
2024-05-27 07:54 pmESE 8.0 15.0----29.82- 85.8 89.6----
2024-05-27 07:48 pmESE 8.0 14.0----29.81- 85.8 89.6----
2024-05-27 07:42 pmESE 11.1 15.0----29.81- 85.8 89.6----
2024-05-27 07:36 pmESE 9.9 14.0----29.81- 86.0 89.6----
2024-05-27 07:30 pmESE 9.9 15.0----29.81- 86.0 89.6----
2024-05-27 07:24 pmESE 8.9 13.0----29.80- 85.8 89.6----
2024-05-27 07:18 pmESE 8.9 14.0----29.80- 86.2 89.6----
2024-05-27 07:12 pmESE 9.9 14.0----29.79- 86.2 89.6----
2024-05-27 07:06 pmESE 9.9 15.0----29.80- 86.4 89.6----
2024-05-27 07:00 pmESE 9.9 14.0----29.80+0.00 86.5 89.6----
2024-05-27 06:54 pm SE 11.1 15.9----29.80- 86.5 89.6----
2024-05-27 06:48 pmESE 9.9 15.0----29.79-- 89.6----
2024-05-27 06:42 pmESE 8.9 15.0----29.79-- 89.6----
2024-05-27 06:36 pmESE 9.9 15.0----29.79-- 89.6----
2024-05-27 06:30 pmESE 11.1 15.9----29.79- 87.3 89.6----
2024-05-27 06:24 pm SE 11.1 15.0----29.79- 87.4 89.6----
2024-05-27 06:18 pmESE 8.9 14.0----29.79- 87.6 89.6----
2024-05-27 06:12 pmESE 8.9 14.0----29.79- 88.0 89.6----
2024-05-27 06:06 pmESE 9.9 13.0----29.79- 88.0 89.4----
2024-05-27 06:00 pmESE 8.9 13.0----29.79-0.03 88.2 89.6----
2024-05-27 05:54 pmESE 9.9 13.0----29.79- 88.5 89.6----
2024-05-27 05:48 pmESE 8.9 13.0----29.80- 88.7 89.6----
2024-05-27 05:42 pmESE 8.9 13.0----29.79- 88.9 89.6----
2024-05-27 05:36 pmESE 8.9 14.0----29.79- 88.7 89.6----
2024-05-27 05:30 pmESE 9.9 13.0----29.79- 88.5 89.6----
2024-05-27 05:24 pmESE 8.9 14.0----29.79- 89.2 89.6----
2024-05-27 05:18 pmESE 11.1 14.0----29.78- 89.8 89.6----
2024-05-27 05:12 pmESE 8.9 14.0----29.79- 89.6 89.4----
2024-05-27 05:06 pmESE 8.9 14.0----29.79- 90.0 89.4----
2024-05-27 05:00 pm--------- 90.1 89.4----
2024-05-27 04:54 pm--------- 89.8 89.4----
2024-05-27 04:48 pmESE 8.0 13.0----29.79- 90.3 89.2----
2024-05-27 04:42 pmESE 8.0 13.0----29.79- 90.7 89.2----
2024-05-27 04:36 pmESE 9.9 14.0----29.79- 91.0 89.2----
2024-05-27 04:30 pmESE 9.9 13.0----29.79-- 89.2----
2024-05-27 04:24 pmESE 8.9 14.0----29.79-- 89.2----
2024-05-27 04:18 pmESE 8.9 13.0----29.79- 91.2 89.2----
2024-05-27 04:12 pmESE 9.9 13.0----29.79- 90.9 89.2----
2024-05-27 04:06 pmESE 9.9 14.0----29.79- 91.4 89.2----
2024-05-27 04:00 pmESE 8.0 13.0----29.80-0.05 91.8 89.2----
2024-05-27 03:54 pmESE 8.0 13.0----29.80- 91.6 89.1----
2024-05-27 03:48 pmESE 9.9 14.0----29.80- 91.4 89.1----
2024-05-27 03:42 pmESE 9.9 13.0----29.80- 91.9 89.1----
2024-05-27 03:36 pm SE 8.9 12.0----29.80- 91.9 88.9----
2024-05-27 03:30 pm-------29.80- 91.8 89.1----
2024-05-27 03:24 pm-------29.81- 91.6 89.1----
2024-05-27 03:18 pm SE 9.9 13.0----29.81- 91.8 89.1----
2024-05-27 03:12 pm SE 9.9 12.0----29.81- 91.8 89.1----
2024-05-27 03:06 pm SE 9.9 12.0----29.81- 91.8 88.9----
2024-05-27 03:00 pm SE 9.9 12.0----29.82-0.03 91.6 88.9----
2024-05-27 02:54 pm SE 8.9 12.0----29.82- 91.8 88.7----
2024-05-27 02:48 pm SE 8.9 12.0------ 91.4 88.7----
2024-05-27 02:42 pm SE 8.9 12.0------ 91.8 88.7----
2024-05-27 02:36 pm SE 8.9 13.0------ 91.6 88.7----
2024-05-27 02:30 pm SE 8.9 12.0----29.83- 91.8 88.7----
2024-05-27 02:24 pm SE 9.9 12.0----29.82- 91.8 88.5----
2024-05-27 02:18 pm SE 8.9 11.1----29.82- 91.9 88.5----
2024-05-27 02:12 pm SE 9.9 12.0----29.83- 91.8 88.5----
2024-05-27 02:06 pm SE 8.9 12.0----29.83- 91.6 88.3----
2024-05-27 02:00 pm SE 8.0 12.0----29.83-0.01 91.6 88.3----
2024-05-27 01:54 pm SE 8.9 12.0----29.83- 91.6 88.5----
2024-05-27 01:48 pm SE 8.0 11.1----29.83- 91.4 88.3----
2024-05-27 01:42 pm SE 8.9 12.0----29.83- 91.6 88.2----
2024-05-27 01:36 pm SE 9.9 12.0----29.83- 91.4 88.0----
2024-05-27 01:30 pm SE 8.9 11.1----29.83- 91.2 88.0----
2024-05-27 01:24 pm SE 8.0 12.0----29.84- 91.4 88.0----
2024-05-27 01:18 pm SE 8.9 12.0----29.84- 91.4 87.8----
2024-05-27 01:12 pm SE 8.9 12.0----29.84- 91.2 87.8----
2024-05-27 01:06 pm SE 8.0 13.0----29.84- 91.4 87.8----
2024-05-27 01:00 pm SE 9.9 12.0----29.84+0.01 91.4 87.8----
2024-05-27 12:54 pm SE 8.0 12.0----29.85- 91.4 87.8----
2024-05-27 12:48 pm SE 7.0 9.9----29.85-- 87.8----
2024-05-27 12:42 pmESE 8.9 11.1----29.85-- 87.6----
2024-05-27 12:36 pm SE 7.0 8.9----29.85-- 87.6----
2024-05-27 12:30 pm SE 6.0 9.9----29.85- 91.4 87.6----
2024-05-27 12:24 pm SE 8.0 11.1----29.85- 91.4 87.6----
2024-05-27 12:18 pm SE 6.0 8.9----29.85- 91.4 87.4----
2024-05-27 12:12 pm SE 7.0 9.9----29.85- 91.0 87.4----
2024-05-27 12:06 pm SE 8.0 9.9----29.85- 90.7 87.4----
2024-05-27 12:00 pmESE 6.0 9.9----29.85+0.03 90.5 87.4----
2024-05-27 11:54 am SE 7.0 9.9----29.85- 90.1 87.4----
2024-05-27 11:48 am SE 7.0 9.9----29.84- 90.0 87.4----
2024-05-27 11:42 am SE 8.0 9.9----29.84- 89.8 87.4----
2024-05-27 11:36 am SE 8.0 9.9----29.84- 90.0 87.4----
2024-05-27 11:30 am SE 7.0 9.9----29.84- 89.4 87.3----
2024-05-27 11:24 am SE 7.0 9.9----29.84- 89.2 87.3----
2024-05-27 11:18 am SE 6.0 9.9----29.84- 89.4 87.3----
2024-05-27 11:12 am SE 7.0 8.9----29.84- 89.2 87.3----
2024-05-27 11:06 am SE 7.0 8.9----29.84- 88.7 87.3----
2024-05-27 11:00 am SE 6.0 8.9----29.84+0.05 88.9 87.3----
2024-05-27 10:54 am SE 8.0 8.9----29.84- 89.2 87.3----